sat.trackr.live / text

‹ back to catalog

STARLINK-3055

NORAD 49137 · 2021-082H

PAYLOAD ACTIVE UNKNOWN

§ Identity

Operator
Country
US
Launch date
2021-09-14
Launch site
AFWTR
Launch vehicle
Mass (kg)
RCS (m²)

Purposes: comms

External: N2YO · Heavens-Above · Gunter

§ Orbital elements

Epoch: 2026-09-20T01:21:52.939008Z

Period
96.16 min
Inclination
69.9993°
Eccentricity
0.0002748
Mean motion
14.97522550 rev/d
Perigee alt
572.6 km
Apogee alt
576.5 km
Semi-major
6,952.7 km
B*
3.6562e-5
RAAN
145.7909°
Arg perigee
271.3742°
Mean anomaly
88.7102°
Rev number
27,555

§ Raw data

STARLINK-30551 49137U 21082H   26263.05686272  .00000335  00000+0  36562-4 0  99982 49137  69.9993 145.7909 0002748 271.3742  88.7102 14.97522550275553

JSON: /api/v1/satellites/49137 · /tle

For live sub-satellite position, see the globe view (requires WebGL).

§ Visibility from observer

Set your observer location to see the next 7 days of passes ≥ 10°. The values pass through the URL so the page stays shareable.

No JS? Fill the form by hand. The geolocation button needs JavaScript.